Location: La Chapelle
(48.3135°N, 1.3085°W)
Time: 07:12:19
(UTC+00:00)

Cosmos 2219 Rocket - Pass Details

Date: 03 March 2021
Orbit: 826 x 848 km, 71.0° (Epoch: 12 April)

Event Time Altitude Azimuth Distance (km) Brightness Sun altitude
Rises 19:24:01 0° 177° (S) 3,352 5.2 -16.0°
Reaches altitude 10° 19:26:38 10° 168° (SSE) 2,425 4.4 -16.4°
Maximum altitude 19:31:33 33° 106° (ESE) 1,356 2.7 -17.2°
Drops below altitude 10° 19:36:31 10° 43° (NE) 2,450 4.3 -18.0°
Sets 19:39:09 0° 35° (NE) 3,392 5.1 -18.4°
